Location: Montreal
(45.5087°N, 73.5540°W)
Time: 01:28:04
(UTC-04:00)

Explorer 7 - All Passes

Search period start: 08 June 2026 00:00
Search period end: 18 June 2026 00:00
Orbit: 426 x 534 km, 50.2° (Epoch: 7 June)

Date Brightness Start Highest point End Pass type
(mag) Time Alt. Az. Time Alt. Az. Time Alt. Az.
8 Jun - 00:54:44 10° WNW 00:58:06 56° NNE 01:01:31 10° E visible
8 Jun - 02:33:06 10° WNW 02:36:14 33° SW 02:39:24 10° SSE visible
8 Jun - 19:31:55 10° SSW 19:34:45 23° SE 19:37:32 10° E daylight
8 Jun - 21:09:17 10° WSW 21:12:44 72° NNW 21:16:08 10° ENE daylight
8 Jun - 22:48:05 10° WNW 22:51:17 35° N 22:54:28 10° ENE visible
9 Jun - 00:26:34 10° WNW 00:29:55 53° NNE 00:33:18 10° E visible
9 Jun - 02:04:54 10° WNW 02:08:04 35° SW 02:11:17 10° SSE visible
9 Jun - 19:03:51 10° S 19:06:35 21° SE 19:09:17 10° E daylight
9 Jun - 20:41:04 10° WSW 20:44:31 77° NNW 20:47:57 10° ENE daylight
9 Jun - 22:19:51 10° WNW 22:23:04 36° N 22:26:15 10° ENE visible
9 Jun - 23:58:22 10° WNW 00:01:43 51° NNE 00:05:03 10° E visible
10 Jun - 01:36:40 10° WNW 01:39:53 39° SW 01:43:08 10° SE visible
10 Jun - 18:35:45 10° S 18:38:24 20° SE 18:41:00 10° E daylight
10 Jun - 20:12:49 10° WSW 20:16:18 82° NNW 20:19:45 10° ENE daylight
10 Jun - 21:51:35 10° WNW 21:54:49 36° N 21:58:01 10° ENE visible
10 Jun - 23:30:08 10° WNW 23:33:28 49° NNE 23:36:48 10° E visible
11 Jun - 01:08:26 10° WNW 01:11:41 42° SW 01:14:57 10° SE visible
11 Jun - 18:07:40 10° S 18:10:11 18° SE 18:12:39 10° E daylight
11 Jun - 19:44:33 10° WSW 19:48:04 87° NNW 19:51:31 10° ENE daylight
11 Jun - 21:23:18 10° WNW 21:26:33 37° N 21:29:45 10° ENE visible
11 Jun - 23:01:54 10° WNW 23:05:12 47° NNE 23:08:32 10° E visible
12 Jun - 00:40:10 10° WNW 00:43:27 46° SSW 00:46:45 10° SE visible
12 Jun - 17:39:34 10° S 17:41:57 17° SE 17:44:17 10° E daylight
12 Jun - 19:16:16 10° WSW 19:19:48 87° SSE 19:23:15 10° ENE daylight
12 Jun - 20:55:00 10° WNW 20:58:16 37° N 21:01:29 10° ENE daylight
12 Jun - 22:33:37 10° WNW 22:36:56 45° NNE 22:40:13 10° E visible
13 Jun - 00:11:53 10° WNW 00:15:12 50° SSW 00:18:32 10° SE visible
13 Jun - 17:11:29 10° S 17:13:42 16° SE 17:15:53 10° E daylight
13 Jun - 18:47:57 10° WSW 18:51:31 81° SSE 18:54:58 10° ENE daylight
13 Jun - 20:26:39 10° WNW 20:29:57 38° N 20:33:12 10° ENE daylight
13 Jun - 22:05:19 10° WNW 22:08:37 43° NNE 22:11:55 10° E visible
13 Jun - 23:43:35 10° WNW 23:46:56 54° SSW 23:50:16 10° SE visible
14 Jun - 16:43:23 10° S 16:45:25 14° SE 16:47:25 10° ESE daylight
14 Jun - 18:19:38 10° WSW 18:23:13 76° SSE 18:26:41 10° ENE daylight
14 Jun - 19:58:18 10° W 20:01:37 39° N 20:04:53 10° ENE daylight
14 Jun - 21:36:59 10° WNW 21:40:18 42° NNE 21:43:34 10° E visible
14 Jun - 23:15:15 10° WNW 23:18:37 59° SSW 23:21:59 10° SE visible
15 Jun - 00:55:57 10° SW 00:56:14 10° SW 00:56:32 10° SW visible
15 Jun - 16:15:19 10° SSE 16:17:07 13° SE 16:18:54 10° ESE daylight
15 Jun - 17:51:17 10° SW 17:54:52 70° SSE 17:58:21 10° ENE daylight
15 Jun - 19:29:54 10° W 19:33:16 40° N 19:36:33 10° ENE daylight
15 Jun - 21:08:38 10° WNW 21:11:56 41° N 21:15:12 10° E daylight
15 Jun - 22:46:54 10° WNW 22:50:18 65° SSW 22:53:40 10° SE visible
16 Jun - 00:26:52 10° WSW 00:27:57 11° SW 00:29:02 10° SSW visible
16 Jun - 15:47:17 10° SSE 15:48:48 12° SE 15:50:19 10° ESE daylight
16 Jun - 17:22:55 10° SW 17:26:31 65° SSE 17:30:00 10° ENE daylight
16 Jun - 19:01:29 10° W 19:04:53 42° N 19:08:12 10° ENE daylight
16 Jun - 20:40:15 10° WNW 20:43:34 40° N 20:46:49 10° E daylight
16 Jun - 22:18:32 10° WNW 22:21:57 71° SSW 22:25:20 10° SE visible
16 Jun - 23:58:09 10° WSW 23:59:38 12° SW 00:01:07 10° SSW visible
17 Jun - 15:19:19 10° SSE 15:20:28 11° SE 15:21:36 10° ESE daylight
17 Jun - 16:54:33 10° SW 16:58:09 60° SSE 17:01:38 10° ENE daylight
17 Jun - 18:33:03 10° W 18:36:29 43° NNW 18:39:49 10° ENE daylight
17 Jun - 20:11:51 10° WNW 20:15:10 39° N 20:18:25 10° E daylight
17 Jun - 21:50:08 10° WNW 21:53:35 77° SSW 21:56:58 10° ESE visible
17 Jun - 23:29:31 10° WSW 23:31:18 14° SW 23:33:04 10° SSW visible
